Weather History for KPEO - December, 2013

Change the Weather History Date:

Wednesday, December 25, 2013

  Actual Average (KITH) Record (KITH)
Temperature  
Mean Temperature 14 °F -  
Max Temperature 24 °F 31 °F 66 °F (1932)
Min Temperature 5 °F 15 °F -15 °F (1969)
Degree Days  
Heating Degree Days 51    
Moisture  
Dew Point 6 °F    
Average Humidity 70    
Maximum Humidity 87    
Minimum Humidity 55    
Precipitation  
Precipitation 0.00 in - - ()
Sea Level Pressure  
Sea Level Pressure 30.44 in    
Wind  
Wind Speed 7 mph (SSW)    
Max Wind Speed 16 mph    
Max Gust Speed 18 mph    
Visibility 9 miles    
Events Snow    
Averages and records for this station are not official NWS values.
T = Trace of Precipitation, MM = Missing Value Source: NWS Daily Summary

Daily Weather History Graph

Daily Weather History Graph

Search for Another Location

Airport or City:

Trip Planner

Search our weather history database for the weather conditions in past years. The results will help you decide how hot, cold, wet, or windy it might be!

Date:

Astronomy

Dec. 25, 2013 Rise Set
Actual Time 7:36 AM EST 4:40 PM EST
Civil Twilight 7:04 AM EST 5:12 PM EST
Nautical Twilight 6:29 AM EST 5:47 PM EST
Astronomical Twilight 5:54 AM EST 6:22 PM EST
Moon No Moon Rise 11:49 AM EST (12/25)
Length of Visible Light 10h 07m
Length of Day
9h 03m
Waning Gibbous, 49% of the Moon is Illuminated
Dec 25
Waning Gibbous
Jan 1
New
Jan 7
First Quarter
Jan 15
Full
Jan 24
Last Quarter

Hourly Weather History & Observations

Time (EST) Temp. Windchill Dew Point Humidity Pressure Visibility Wind Dir Wind Speed Gust Speed Precip Events Conditions
12:04 AM 14.0 °F 1.2 °F 3.0 °F 62% 30.42 in 10.0 mi West 10.4 mph - N/A   Mostly Cloudy
12:53 AM 12.9 °F 3.8 °F 6.1 °F 74% 30.48 in 5.0 mi Variable 5.8 mph - 0.00 in Snow Light Snow
1:53 AM 12.0 °F -0.4 °F 3.9 °F 70% 30.49 in 6.0 mi WNW 9.2 mph - 0.00 in Snow Light Snow
2:34 AM 12.0 °F 0.5 °F 3.9 °F 70% 30.44 in 9.0 mi NW 8.1 mph - 0.00 in   Overcast
2:53 AM 10.9 °F -1.8 °F 3.9 °F 73% 30.51 in 7.0 mi NW 9.2 mph - 0.00 in Snow Light Snow
3:29 AM 10.0 °F 3.6 °F 3.0 °F 73% 30.44 in 10.0 mi NNW 3.5 mph - 0.00 in   Scattered Clouds
3:53 AM 8.1 °F 1.4 °F 3.0 °F 80% 30.51 in 9.0 mi East 3.5 mph - 0.00 in   Scattered Clouds
4:00 AM 7.0 °F 0.1 °F 3.0 °F 84% 30.44 in 7.0 mi ESE 3.5 mph - N/A   Mostly Cloudy
4:17 AM 6.1 °F -0.9 °F 3.0 °F 87% 30.45 in 10.0 mi SSE 3.5 mph - N/A   Scattered Clouds
4:32 AM 7.0 °F - 3.0 °F 84% 30.46 in 10.0 mi Calm Calm - N/A   Mostly Cloudy
4:53 AM 9.0 °F -0.9 °F 3.9 °F 80% 30.53 in 7.0 mi West 5.8 mph - N/A   Overcast
5:33 AM 8.1 °F -0.5 °F 3.0 °F 80% 30.45 in 10.0 mi West 4.6 mph - N/A   Scattered Clouds
5:53 AM 9.0 °F -0.9 °F 3.9 °F 80% 30.53 in 10.0 mi West 5.8 mph - N/A   Clear
6:53 AM 9.0 °F -0.9 °F 3.0 °F 77% 30.54 in 10.0 mi WSW 5.8 mph - N/A   Clear
7:53 AM 5.0 °F -2.1 °F 1.0 °F 84% 30.54 in 10.0 mi SSW 3.5 mph - N/A   Clear
8:53 AM 9.0 °F 0.6 °F 3.9 °F 80% 30.55 in 10.0 mi SSW 4.6 mph - N/A   Clear
9:53 AM 10.9 °F 2.9 °F 6.1 °F 81% 30.55 in 10.0 mi SSW 4.6 mph - N/A   Clear
10:53 AM 12.9 °F 5.2 °F 6.1 °F 74% 30.53 in 10.0 mi South 4.6 mph - N/A   Clear
11:53 AM 16.0 °F 7.4 °F 7.0 °F 68% 30.49 in 10.0 mi South 5.8 mph - N/A   Scattered Clouds
12:53 PM 17.1 °F 8.7 °F 6.1 °F 62% 30.46 in 10.0 mi South 5.8 mph - N/A   Overcast
1:53 PM 19.0 °F 10.0 °F 6.1 °F 57% 30.43 in 10.0 mi SSE 6.9 mph - N/A   Overcast
2:53 PM 19.0 °F 10.0 °F 9.0 °F 65% 30.41 in 10.0 mi SE 6.9 mph - N/A   Overcast
3:53 PM 19.9 °F 10.1 °F 9.0 °F 62% 30.39 in 10.0 mi SE 8.1 mph - N/A   Mostly Cloudy
4:53 PM 19.9 °F 12.1 °F 9.0 °F 62% 30.38 in 10.0 mi ESE 5.8 mph - N/A   Overcast
5:53 PM 19.9 °F 10.1 °F 10.0 °F 65% 30.35 in 10.0 mi SE 8.1 mph - N/A   Overcast
6:53 PM 21.0 °F 11.4 °F 10.9 °F 65% 30.35 in 10.0 mi SSE 8.1 mph - N/A   Overcast
7:53 PM 23.0 °F 11.7 °F 9.0 °F 55% 30.34 in 10.0 mi South 11.5 mph - N/A   Overcast
8:53 PM 23.0 °F 12.4 °F 10.0 °F 58% 30.31 in 10.0 mi South 10.4 mph - N/A   Overcast
9:53 PM 23.0 °F 9.6 °F 10.0 °F 58% 30.30 in 10.0 mi South 16.1 mph - N/A   Overcast
10:53 PM 23.0 °F 14.7 °F 10.0 °F 58% 30.28 in 10.0 mi South 6.9 mph - N/A   Overcast
11:53 PM 24.1 °F 14.4 °F 10.9 °F 57% 30.26 in 10.0 mi South 9.2 mph 18.4 mph 0.00 in   Overcast